#timestamp,LO_Frequency,Hit,StdDev 
1698469215.6,286047000.9,N
1698469235.5,286046998.6,N
1698469255.3,286047000.7,N
1698469275.1,286047001.0,N
1698469295.9,286046999.6,N
1698469315.7,286046998.4,N
1698469335.6,286047000.0,N
1698469355.4,286047000.2,N
1698469375.2,286047001.0,N
1698469395.1,286047000.6,N
1698469396.0,286047000.6,N
1698469415.8,286047000.4,N
1698469435.7,286047002.8,N
1698469455.5,286047000.3,N
1698469475.3,286047001.2,N
1698469495.2,286046999.1,N
1698469515.0,286046998.5,N
1698469515.9,286046998.5,N
1698469535.8,286046998.5,N
1698469555.6,286047001.2,N
1698469575.4,286047001.2,N
1698469595.3,286046998.1,N
1698469615.1,286046999.3,N
1698469635.9,286047000.7,N
1698469655.7,286046998.5,N
1698469675.5,286047000.5,N
1698469695.4,286046998.4,N
1698469715.2,286046998.7,N
1698469735.1,286046998.2,N
1698469736.0,286046998.2,N
1698469755.8,286047000.6,N
1698469775.6,286047000.9,N
1698469795.5,286047000.2,N
1698469815.3,286047000.3,N
1698469835.2,286047000.0,N
1698469855.9,286047001.2,N
1698469875.7,286047001.1,N
1698469895.6,286046999.8,N
1698469915.4,286047000.4,N
1698469935.2,286047001.9,N
1698469955.1,286047001.6,N
1698469956.0,286047001.6,N
1698469975.8,286047001.7,N
1698469995.7,286047001.5,N
1698470015.5,286047003.5,N
1698470035.3,286047004.0,N
1698470055.2,286047004.1,N
1698470075.0,286047004.1,N
1698470075.9,286047004.1,N
1698470095.8,286047004.4,N
1698470115.6,286047004.3,N
1698470135.4,286047003.9,N
1698470155.3,286047003.3,N
1698470175.1,286047003.3,N
1698470195.9,286047003.4,N
1698470215.7,286047006.0,Y
1698470235.5,286047004.2,P
1698470255.4,286047004.3,P
1698470275.2,286047003.3,N
1698470295.1,286047004.3,Y
1698470296.0,286047004.3,P
1698470315.8,286047000.8,N
1698470335.6,286046999.8,N
1698470355.5,286047002.0,N
1698470375.3,286047001.8,N
1698470395.2,286047001.4,N
1698470415.9,286047001.8,N
1698470435.7,286047001.6,N
1698470455.6,286047001.9,N
1698470475.4,286047004.4,Y
1698470495.2,286047002.1,P
1698470515.1,286046999.9,N
1698470516.0,286046999.9,N
1698470535.8,286047001.0,N
1698470555.7,286047002.2,N
1698470575.5,286047001.5,N
1698470595.3,286047001.8,N
1698470615.2,286047004.2,Y
1698470635.0,286047001.9,P
1698470635.9,286047001.9,P
1698470655.8,286047001.7,P
1698470675.6,286047001.5,Y
1698470695.4,286047000.5,P
1698470715.3,286047000.5,N
1698470735.1,286047001.0,N
1698470755.9,286047000.7,N
1698470775.7,286046999.9,N
1698470795.5,286047000.4,N
1698470815.4,286047000.5,N
1698470835.2,286047001.1,N
1698470855.1,286046998.1,Y
1698470856.0,286046998.1,P
1698470875.8,286046998.1,N
1698470895.6,286047000.3,N
1698470915.5,286046999.7,N
1698470935.3,286047002.3,N
1698470955.2,286047002.3,N
1698470975.9,286046999.7,N
1698470995.7,286047002.4,N
1698471015.6,286047002.0,N
1698471035.4,286047002.3,N
1698471055.3,286047004.4,N
1698471075.1,286047004.0,N
1698471076.0,286047004.0,N
1698471095.8,286047004.0,N
1698471115.7,286047004.1,N
1698471135.5,286047003.8,N
1698471155.3,286047004.1,N
1698471175.2,286047003.9,N
1698471195.0,286047004.3,N
1698471195.9,286047004.3,N
1698471215.8,286047003.2,N
1698471235.6,286047004.0,N
1698471255.4,286047004.3,N
1698471275.3,286047004.1,N
1698471295.1,286047004.3,N
1698471315.9,286047003.5,N
1698471335.7,286047003.6,N
1698471355.5,286047001.7,N
1698471375.4,286047001.5,N
1698471395.2,286047002.5,N
1698471415.0,286047002.7,N
1698471415.9,286047002.7,N
1698471435.8,286047002.7,N
1698471455.6,286047001.3,N
1698471475.5,286047001.6,N
1698471495.3,286047004.4,Y
1698471515.1,286046998.6,P
1698471535.9,286046998.1,N
1698471555.7,286046998.1,N
1698471575.6,286046998.8,N
1698471595.4,286046998.5,N
1698471615.2,286046998.8,N
1698471635.1,286046999.5,N
1698471636.0,286046999.5,N
1698471655.8,286046997.2,N
1698471675.6,286046997.7,N
1698471695.5,286046997.4,N
1698471715.3,286046996.7,N
1698471735.1,286046997.1,N
1698471755.9,286046995.0,Y
1698471775.7,286046998.9,P
1698471795.6,286046998.7,P
1698471815.4,286046998.4,P
1698471835.2,286046998.5,Y
1698471855.1,286047001.9,P
1698471856.0,286047001.9,N
1698471875.8,286047002.6,N
1698471895.7,286047002.4,N
1698471915.5,286047002.1,N
1698471935.3,286047004.4,Y
1698471955.2,286047000.4,P
1698471975.0,286047002.7,P
1698471975.9,286047002.7,N
1698471995.7,286047001.0,N
1698472015.6,286046998.5,N
1698472035.4,286047000.3,N
1698472055.3,286047002.4,N
1698472075.1,286047002.7,N
1698472076.0,286047002.7,N
1698472095.8,286047002.2,N
1698472115.7,286047002.6,N
1698472135.5,286047000.3,N
1698472155.3,286047000.5,N
1698472175.2,286047002.3,N
1698472195.0,286046999.8,N
1698472195.9,286046999.8,N
1698472215.8,286047000.9,N
1698472235.6,286047001.1,N
1698472255.4,286047000.5,N
1698472275.3,286047000.5,N
1698472295.1,286047002.5,N
1698472315.8,286047002.5,N
1698472335.7,286047002.6,N
1698472355.5,286047002.1,N
1698472375.4,286047002.6,N
1698472395.2,286047002.5,N
1698472415.0,286047002.3,N
1698472415.9,286047002.3,N
1698472435.8,286047002.2,N
1698472485.6,286047001.6,E
1698472495.6,286047002.0,N
1698472515.4,286047000.2,P
1698472535.2,286047000.7,N
1698472555.1,286047001.0,N
1698472556.0,286047001.0,N
1698472575.8,286046999.9,N
1698472595.2,286047002.7,Y
1698472615.0,286046998.6,P
1698472615.9,286046998.6,N
1698472635.8,286046998.1,N
1698472655.6,286047001.2,N
1698472675.4,286046998.3,N
1698472695.3,286047000.9,N
1698472715.1,286046998.5,N
1698472735.9,286047000.7,N
1698472755.7,286046998.5,N
1698472775.5,286046999.0,N
1698472795.4,286046999.0,N
